Flag for Canada Weather past 2 weeks in Conception Bay South, Newfoundland and Labrador, Canada

30 °F

Passing clouds.

Feels Like: 19 °F
Forecast: 26 / 35 °F
Wind: 15 mph from Northwest

Location: St. John's

Current Time: Nov 25, 2015 at 9:16:18 PM

Latest Report: Nov 25, 2015 at 8:30 PM

Visibility: 15 mi

Pressure: 30.59 "Hg

Humidity: 64%

Dew point: 19 °F

Location of Conception Bay SouthLocation

Historic Weather in Conception Bay South — Graph


Conception Bay South temperature yesterday

Maximum temperature yesterday: 50 °F (at 1:30 PM)
Minimum temperature yesterday: 36 °F (at 9:30 PM)
Average temperature yesterday: 43 °F

Past Weeks' High & Low Weather Summary

High50 °F (Nov 24, 1:30 PM)100% (Nov 14, 8:30 AM)30.66 "Hg (Nov 14, 8:30 AM)
Low27 °F (Nov 11, 6:30 PM)55% (Nov 25, 2:30 PM)29.31 "Hg (Nov 15, 3:30 AM)
Average35 °F87%30.06 "Hg
* Reported Nov 10 7:30 PM — Nov 25 7:30 PM, Conception Bay South, Weather by CustomWeather, © 2015

Note: Actual official high and low records may vary slightly from our data, if they occured in-between our weather recording intervals... More about our weather records


Conception Bay South weather history for previous 24 hours

Time TempWeatherWind HumidityBarometerVisibility
7:30 PM
Wed, Nov 25
30 °FOvercast.18 mph64%30.55 "Hg15 mi
6:30 PM30 °FPassing clouds.18 mph64%30.52 "Hg15 mi
5:30 PM30 °FPassing clouds.22 mph64%30.47 "Hg15 mi
4:30 PM32 °FPassing clouds.18 mph60%30.43 "Hg15 mi
3:30 PM32 °FPartly sunny.21 mph60%30.40 "Hg15 mi
2:30 PM32 °FPartly sunny.22 mph55%30.37 "Hg15 mi
1:30 PM34 °FOvercast.20 mph60%30.34 "Hg15 mi
12:30 PM34 °FOvercast.16 mph60%30.32 "Hg15 mi
11:30 AM34 °FScattered clouds.21 mph56%30.31 "Hg15 mi
10:30 AM34 °FScattered clouds.18 mph60%30.30 "Hg15 mi
9:30 AM34 °FScattered clouds.18 mph60%30.28 "Hg15 mi
9:17 AM34 °FScattered clouds.10 mph60%30.27 "Hg15 mi
8:30 AM32 °FPartly sunny.8 mph64%30.25 "Hg15 mi
7:30 AM32 °FPartly sunny.13 mph64%30.22 "Hg15 mi
6:30 AM34 °FOvercast.10 mph65%30.19 "Hg15 mi
5:30 AM32 °FOvercast.8 mph69%30.15 "Hg15 mi
4:30 AM32 °FPassing clouds.8 mph69%30.14 "Hg15 mi
3:30 AM32 °FPassing clouds.9 mph69%30.11 "Hg15 mi
2:30 AM34 °FPassing clouds.10 mph75%30.09 "Hg15 mi
1:30 AM36 °FMostly cloudy.10 mph75%30.05 "Hg15 mi
12:30 AM36 °FPassing clouds.12 mph75%30.02 "Hg15 mi
11:30 PM
Tue, Nov 24
36 °FOvercast.15 mph75%30.00 "Hg15 mi
10:30 PM36 °FPassing clouds.18 mph87%29.97 "Hg15 mi
9:30 PM36 °FPartly cloudy.16 mph87%29.95 "Hg14 mi
Weather by CustomWeather, © 2015

See weather overviewHow to use our weather pages